Regional Weather Roundup
Issued by NWS

Home | Current Version | Previous Version | Text Only | Print | Product List | Glossary On
Versions: 1 2 3 4 5 6 7 8 9 10 11 12 13 14 15 16 17 18 19 20 21 22 23 24 25 26 27 28 29 30 31 32 33 34 35 36 37 38 39 40 41 42 43 44 45 46 47 48 49 50
000
ASUS43 KOAX 241502
RWRNE

WEATHER ROUNDUP FOR NEBRASKA
NATIONAL WEATHER SERVICE OMAHA NE
900 AM CST WED DEC 24 2014

NOTES: SATELLITE DATA IS BEING USED TO AUGMENT CLOUD COVER ABOVE
       12000 FEET.
       "FAIR" INDICATES FEW OR NO CLOUDS BELOW 12,000 FEET WITH NO
       SIGNIFICANT WEATHER AND/OR OBSTRUCTIONS TO VISIBILITY.

  * THESE STATIONS DO NOT REPORT WEATHER SUCH AS RAIN...SNOW OR FOG.

NEZ001>004-019>022-054>056-241600-
NEBRASKA PANHANDLE

CITY           SKY/WX    TMP DP  RH WIND       PRES   REMARKS
SCOTTSBLUFF    CLEAR     10   6  84 CALM      29.85F
ALLIANCE       PTCLDY     7   4  87 W7        29.82F WCI  -5
CHADRON        PTCLDY    13   7  77 SW6       29.82F WCI   4
SIDNEY         PTCLDY    19   8  62 W13       29.87F WCI   6
$$

NEZ057>060-069>072-079>082-241600-
SOUTHWEST NEBRASKA

CITY           SKY/WX    TMP DP  RH WIND       PRES   REMARKS
NORTH PLATTE   PTCLDY    17  13  84 NW9       29.92F WCI   6
IMPERIAL       PTCLDY    16   9  74 W12       29.92F WCI   3
MCCOOK         CLEAR     18  14  84 W12       29.96S WCI   5
$$

NEZ005>010-023>029-035>040-094-241600-
NORTH CENTRAL NEBRASKA

CITY           SKY/WX    TMP DP  RH WIND       PRES   REMARKS
VALENTINE      PTCLDY    11   8  88 W7        29.86F WCI   0
BROKEN BOW     PTCLDY    22  16  78 NW7       29.89F WCI  13
ORD            PTCLDY    22  19  89 W7        29.90F WCI  13
$$

NEZ041-046>049-061>064-073>077-083>087-241600-
SOUTH CENTRAL NEBRASKA

CITY           SKY/WX    TMP DP  RH WIND       PRES   REMARKS
GRAND ISLAND   CLOUDY    27  23  85 NW14      29.92F WCI  16
HASTINGS       CLOUDY    27  22  81 NW10      29.91F WCI  17
KEARNEY *      CLEAR     21  18  86 W8        29.92F WCI  12
$$

NEZ011>018-030>034-042>045-241600-
NORTHEAST NEBRASKA

CITY           SKY/WX    TMP DP  RH WIND       PRES   REMARKS
NORFOLK        CLOUDY    27  25  92 NW14      29.89F WCI  16
COLUMBUS *     CLOUDY    28  21  74 NW12      29.92S WCI  18
TEKAMAH        CLOUDY    32  29  88 NW15      29.88S WCI  22
$$

NEZ050>053-065>068-078-088>093-241600-
SOUTHEAST NEBRASKA

CITY           SKY/WX    TMP DP  RH WIND       PRES   REMARKS
LINCOLN        CLOUDY    31  26  82 NW13      29.91F WCI  21
OMAHA EPPLEY   CLOUDY    33  30  88 NW17      29.87F WCI  22
FALLS CITY     CLOUDY    34  34 100 NW15      29.87R WCI  24
$$

NEZ044-045-051>053-067-241600-
OMAHA AREA

CITY           SKY/WX    TMP DP  RH WIND       PRES   REMARKS
OMAHA EPPLEY   CLOUDY    33  30  88 NW17      29.87F WCI  22
$$



USA.gov is the U.S. government's official web portal to all federal, state and local government web resources and services.